Weather History for Heber, UT

Change the Weather History Date:

Wednesday, June 26, 2013

  Actual Average (KPVU) Record (KPVU)
Temperature  
Mean Temperature 68 °F -  
Max Temperature 89 °F 84 °F 98 °F (2002)
Min Temperature 46 °F 53 °F 44 °F (1985)
Cooling Degree Days 2    
Growing Degree Days 18 (Base 50)    
Moisture  
Dew Point 42 °F    
Average Humidity 43    
Maximum Humidity 87    
Minimum Humidity 14    
Precipitation  
Precipitation 0.00 in - - ()
Sea Level Pressure  
Sea Level Pressure 30.15 in    
Wind  
Wind Speed 3 mph (WSW)    
Max Wind Speed 17 mph    
Max Gust Speed 24 mph    
Visibility 10 miles    
Events      
Averages and records for this station are not official NWS values.
T = Trace of Precipitation, MM = Missing Value Source: NWS Daily Summary

Daily Weather History Graph

Daily Weather History Graph

Search for Another Location

Airport:

Trip Planner

Search our weather history database for the weather conditions in past years. The results will help you decide how hot, cold, wet, or windy it might be!

Date:

Astronomy

Jun. 26, 2013 Rise Set
Actual Time 5:57 AM MDT 9:00 PM MDT
Civil Twilight 5:23 AM MDT 9:33 PM MDT
Nautical Twilight 4:41 AM MDT 10:15 PM MDT
Astronomical Twilight 3:51 AM MDT 11:05 PM MDT
Moon 11:24 PM MDT (6/26) 9:53 AM MDT (6/26)
Length of Visible Light 16h 09m
Length of Day
15h 03m
Waning Gibbous, 85% of the Moon is Illuminated
Jun 26
Waning Gibbous
Jun 29
Last Quarter
Jul 8
New
Jul 15
First Quarter
Jul 22
Full

Hourly Weather History & Observations

Time (MDT) Temp. Windchill Dew Point Humidity Pressure Visibility Wind Dir Wind Speed Gust Speed Precip Events Conditions
12:15 AM 53.6 °F - 44.6 °F 72% 30.07 in 10.0 mi Calm Calm - N/A   Clear
12:35 AM 53.6 °F - 42.8 °F 67% 30.08 in 10.0 mi Calm Calm - N/A   Clear
12:55 AM 55.4 °F - 42.8 °F 63% 30.08 in 10.0 mi Calm Calm - N/A   Clear
1:15 AM 55.4 °F - 42.8 °F 63% 30.08 in 10.0 mi Calm Calm - N/A   Clear
1:35 AM 53.6 °F - 42.8 °F 67% 30.08 in 10.0 mi Calm Calm - N/A   Clear
1:55 AM 55.4 °F - 42.8 °F 63% 30.08 in 10.0 mi Calm Calm - N/A   Clear
2:15 AM 51.8 °F - 42.8 °F 71% 30.08 in 10.0 mi Calm Calm - N/A   Clear
2:35 AM 51.8 °F - 42.8 °F 71% 30.09 in 10.0 mi Calm Calm - N/A   Clear
2:55 AM 51.8 °F - 42.8 °F 71% 30.09 in 10.0 mi Calm Calm - N/A   Clear
3:15 AM 51.8 °F - 42.8 °F 71% 30.09 in 10.0 mi Calm Calm - N/A   Clear
3:35 AM 51.8 °F - 42.8 °F 71% 30.10 in 10.0 mi Calm Calm - N/A   Clear
3:55 AM 50.0 °F - 42.8 °F 76% 30.11 in 10.0 mi South 5.8 mph - N/A   Clear
4:15 AM 51.8 °F - 41.0 °F 67% 30.11 in 10.0 mi Calm Calm - N/A   Clear
4:35 AM 50.0 °F - 42.8 °F 76% 30.11 in 10.0 mi Calm Calm - N/A   Clear
4:55 AM 51.8 °F - 42.8 °F 71% 30.11 in 10.0 mi Calm Calm - N/A   Clear
5:15 AM 50.0 °F - 41.0 °F 71% 30.12 in 10.0 mi Calm Calm - N/A   Clear
5:35 AM 46.4 °F - 42.8 °F 87% 30.13 in 10.0 mi Calm Calm - N/A   Clear
5:55 AM 46.4 °F - 42.8 °F 87% 30.14 in 10.0 mi Calm Calm - N/A   Clear
6:15 AM 46.4 °F 44.3 °F 41.0 °F 81% 30.15 in 10.0 mi ESE 4.6 mph - N/A   Clear
6:35 AM 50.0 °F - 42.8 °F 76% 30.15 in 10.0 mi Calm Calm - N/A   Clear
6:55 AM 51.8 °F - 42.8 °F 71% 30.16 in 7.0 mi Calm Calm - N/A   Clear
7:15 AM 53.6 °F - 44.6 °F 72% 30.17 in 10.0 mi Calm Calm - N/A   Clear
7:35 AM 55.4 °F - 42.8 °F 63% 30.17 in 10.0 mi Calm Calm - N/A   Clear
7:55 AM 57.2 °F - 42.8 °F 59% 30.17 in 10.0 mi Calm Calm - N/A   Clear
8:15 AM 60.8 °F - 42.8 °F 52% 30.18 in 10.0 mi Calm Calm - N/A   Clear
8:55 AM 66.2 °F - 42.8 °F 43% 30.18 in 10.0 mi Calm Calm - N/A   Clear
9:15 AM 69.8 °F - 42.8 °F 38% 30.18 in 10.0 mi Calm Calm - N/A   Clear
9:35 AM 71.6 °F - 44.6 °F 38% 30.18 in 10.0 mi Calm Calm - N/A   Clear
9:55 AM 73.4 °F - 42.8 °F 33% 30.18 in 10.0 mi Calm Calm - N/A   Clear
10:15 AM 77.0 °F - 42.8 °F 29% 30.18 in 10.0 mi Calm Calm - N/A   Clear
10:35 AM 80.6 °F - 42.8 °F 26% 30.18 in 10.0 mi WSW 8.1 mph - N/A   Clear
10:55 AM 82.4 °F - 41.0 °F 23% 30.18 in 10.0 mi West 11.5 mph - N/A   Clear
11:15 AM 82.4 °F - 41.0 °F 23% 30.18 in 10.0 mi WSW 9.2 mph - N/A   Clear
11:35 AM 82.4 °F - 41.0 °F 23% 30.18 in 10.0 mi SW 8.1 mph - N/A   Clear
11:55 AM 82.4 °F - 39.2 °F 21% 30.18 in 10.0 mi Calm Calm - N/A   Clear
12:15 PM 86.0 °F - 37.4 °F 18% 30.18 in 10.0 mi West 6.9 mph - N/A   Clear
12:35 PM 86.0 °F - 41.0 °F 20% 30.18 in 10.0 mi SW 8.1 mph - N/A   Clear
12:55 PM 86.0 °F - 41.0 °F 20% 30.18 in 10.0 mi SW 8.1 mph - N/A   Clear
1:15 PM 86.0 °F - 37.4 °F 18% 30.18 in 10.0 mi WSW 10.4 mph - N/A   Clear
1:35 PM 87.8 °F - 37.4 °F 17% 30.18 in 10.0 mi SSW 8.1 mph 19.6 mph N/A   Clear
1:55 PM 87.8 °F - 37.4 °F 17% 30.18 in 10.0 mi WSW 16.1 mph 21.9 mph N/A   Clear
2:15 PM 87.8 °F - 37.4 °F 17% 30.18 in 10.0 mi SW 16.1 mph 24.2 mph N/A   Clear
2:35 PM 86.0 °F - 39.2 °F 19% 30.18 in 10.0 mi SSW 11.5 mph 23.0 mph N/A   Clear
2:55 PM 87.8 °F - 39.2 °F 18% 30.17 in 10.0 mi SW 12.7 mph 19.6 mph N/A   Clear
3:15 PM 87.8 °F - 41.0 °F 19% 30.17 in 10.0 mi SW 12.7 mph 19.6 mph N/A   Clear
3:35 PM 87.8 °F - 39.2 °F 18% 30.17 in 10.0 mi SW 17.3 mph - N/A   Clear
3:55 PM 89.6 °F - 37.4 °F 16% 30.16 in 10.0 mi WSW 16.1 mph 21.9 mph N/A   Clear
4:15 PM 89.6 °F - 39.2 °F 17% 30.16 in 10.0 mi WSW 16.1 mph 20.7 mph N/A   Clear
4:35 PM 89.6 °F - 37.4 °F 16% 30.15 in 10.0 mi WSW 16.1 mph 19.6 mph N/A   Clear
4:55 PM 89.6 °F - 35.6 °F 15% 30.15 in 10.0 mi SW 12.7 mph 18.4 mph N/A   Clear
5:15 PM 89.6 °F - 35.6 °F 15% 30.15 in 10.0 mi WSW 12.7 mph 19.6 mph N/A   Clear
5:35 PM 89.6 °F - 35.6 °F 15% 30.15 in 10.0 mi SW 13.8 mph 21.9 mph N/A   Clear
5:55 PM 89.6 °F - 35.6 °F 15% 30.15 in 10.0 mi WSW 13.8 mph 18.4 mph N/A   Clear
6:15 PM 89.6 °F - 37.4 °F 16% 30.14 in 10.0 mi West 9.2 mph - N/A   Clear
6:35 PM 89.6 °F - 37.4 °F 16% 30.14 in 10.0 mi SW 9.2 mph - N/A   Clear
6:55 PM 89.6 °F - 33.8 °F 14% 30.14 in 10.0 mi West 3.5 mph - N/A   Clear
7:15 PM 87.8 °F - 37.4 °F 17% 30.15 in 10.0 mi WSW 4.6 mph - N/A   Clear
7:35 PM 87.8 °F - 33.8 °F 15% 30.15 in 10.0 mi West 3.5 mph - N/A   Clear
7:55 PM 86.0 °F - 35.6 °F 17% 30.15 in 10.0 mi West 3.5 mph - N/A   Clear
8:15 PM 84.2 °F - 44.6 °F 25% 30.16 in 10.0 mi Calm Calm - N/A   Clear
8:35 PM 78.8 °F - 46.4 °F 32% 30.16 in 10.0 mi North 6.9 mph - N/A   Clear
8:55 PM 73.4 °F - 46.4 °F 38% 30.17 in 10.0 mi Calm Calm - N/A   Clear
9:15 PM 73.4 °F - 42.8 °F 33% 30.18 in 10.0 mi Calm Calm - N/A   Clear
9:35 PM 66.2 °F - 50.0 °F 56% 30.19 in 10.0 mi Calm Calm - N/A   Clear
9:55 PM 62.6 °F - 48.2 °F 59% 30.19 in 10.0 mi Calm Calm - N/A   Clear
10:15 PM 64.4 °F - 46.4 °F 52% 30.20 in 10.0 mi Calm Calm - N/A   Clear
10:35 PM 62.6 °F - 48.2 °F 59% 30.21 in 10.0 mi Calm Calm - N/A   Clear
10:55 PM 62.6 °F - 46.4 °F 55% 30.22 in 10.0 mi Calm Calm - N/A   Clear
11:15 PM 62.6 °F - 46.4 °F 55% 30.23 in 10.0 mi Calm Calm - N/A   Clear
11:35 PM 59.0 °F - 46.4 °F 63% 30.23 in 10.0 mi Calm Calm - N/A   Clear
11:55 PM 59.0 °F - 46.4 °F 63% 30.23 in 10.0 mi Calm Calm - N/A   Clear